Time,TemperatureF,DewpointF,PressureIn,WindDirection,WindDirectionDegrees,WindSpeedMPH,WindSpeedGustMPH,Humidity,HourlyPrecipIn,Conditions,Clouds,dailyrainin,SoftwareType,DateUTC
2013-09-22 00:00:00,52.5,47.8,29.93,WNW,301,0.0,0.0,84,0.00,,,0.00,Wunderground v.1.15,2013-09-22 05:00:00,
2013-09-22 00:05:00,52.3,47.6,29.93,WNW,301,0.0,0.0,84,0.00,,,0.00,Wunderground v.1.15,2013-09-22 05:05:00,
2013-09-22 00:10:00,52.3,47.6,29.93,WNW,301,0.0,0.0,84,0.00,,,0.00,Wunderground v.1.15,2013-09-22 05:10:00,
2013-09-22 00:20:00,52.2,47.8,29.93,WNW,301,0.0,0.0,85,0.00,,,0.00,Wunderground v.1.15,2013-09-22 05:20:00,
2013-09-22 00:25:00,52.2,47.8,29.93,WNW,301,0.0,0.0,85,0.00,,,0.00,Wunderground v.1.15,2013-09-22 05:25:00,
2013-09-22 00:30:00,52.2,47.8,29.93,WNW,301,0.0,0.0,85,0.00,,,0.00,Wunderground v.1.15,2013-09-22 05:30:00,
2013-09-22 00:40:00,52.2,47.8,29.93,WNW,301,0.0,0.0,85,0.00,,,0.00,Wunderground v.1.15,2013-09-22 05:40:00,
2013-09-22 00:50:00,52.2,47.5,29.93,WNW,301,0.0,0.0,84,0.00,,,0.00,Wunderground v.1.15,2013-09-22 05:50:00,
2013-09-22 01:00:00,52.2,47.5,29.93,WNW,301,0.0,0.0,84,0.00,,,0.00,Wunderground v.1.15,2013-09-22 06:00:00,
2013-09-22 01:05:00,52.2,47.5,29.93,WNW,301,0.0,0.0,84,0.00,,,0.00,Wunderground v.1.15,2013-09-22 06:05:00,
2013-09-22 01:10:00,52.2,47.5,29.93,North,357,0.0,0.0,84,0.00,,,0.00,Wunderground v.1.15,2013-09-22 06:10:00,
2013-09-22 01:15:00,52.2,47.5,29.93,North,357,0.0,0.0,84,0.00,,,0.00,Wunderground v.1.15,2013-09-22 06:15:00,
2013-09-22 01:20:00,52.0,47.3,29.93,North,357,0.0,0.0,84,0.00,,,0.00,Wunderground v.1.15,2013-09-22 06:20:00,
2013-09-22 01:30:00,51.9,47.2,29.93,North,32767,-999.0,0.0,84,0.00,,,0.00,Wunderground v.1.15,2013-09-22 06:30:00,
2013-09-22 01:40:00,51.7,47.0,29.93,North,32767,-999.0,0.0,84,0.00,,,0.00,Wunderground v.1.15,2013-09-22 06:40:00,
2013-09-22 01:45:00,51.7,47.0,29.93,North,32767,-999.0,0.0,84,0.00,,,0.00,Wunderground v.1.15,2013-09-22 06:45:00,
2013-09-22 02:05:00,51.4,46.7,29.94,North,32767,-999.0,0.0,84,0.00,,,0.00,Wunderground v.1.15,2013-09-22 07:05:00,
2013-09-22 02:10:00,51.4,47.0,29.94,North,32767,-999.0,0.0,85,0.00,,,0.00,Wunderground v.1.15,2013-09-22 07:10:00,
2013-09-22 02:20:00,51.4,47.0,29.94,North,32767,-999.0,0.0,85,0.00,,,0.00,Wunderground v.1.15,2013-09-22 07:20:00,
2013-09-22 02:25:00,51.4,47.0,29.94,North,32767,-999.0,0.0,85,0.00,,,0.00,Wunderground v.1.15,2013-09-22 07:25:00,
2013-09-22 02:35:00,51.3,46.9,29.94,North,32767,-999.0,0.0,85,0.00,,,0.00,Wunderground v.1.15,2013-09-22 07:35:00,
2013-09-22 02:40:00,51.1,46.7,29.94,North,32767,-999.0,0.0,85,0.00,,,0.00,Wunderground v.1.15,2013-09-22 07:40:00,
2013-09-22 02:50:00,51.3,46.9,29.94,North,32767,-999.0,0.0,85,0.00,,,0.00,Wunderground v.1.15,2013-09-22 07:50:00,
2013-09-22 03:05:00,51.4,47.0,29.94,North,32767,-999.0,0.0,85,0.00,,,0.00,Wunderground v.1.15,2013-09-22 08:05:00,
2013-09-22 03:15:00,51.7,47.0,29.94,North,32767,-999.0,0.0,84,0.00,,,0.00,Wunderground v.1.15,2013-09-22 08:15:00,
2013-09-22 03:20:00,51.9,47.2,29.94,North,32767,-999.0,0.0,84,0.00,,,0.00,Wunderground v.1.15,2013-09-22 08:20:00,
2013-09-22 03:30:00,52.0,47.0,29.94,North,32767,-999.0,0.0,83,0.00,,,0.00,Wunderground v.1.15,2013-09-22 08:30:00,
2013-09-22 03:40:00,52.2,46.9,29.95,North,32767,-999.0,0.0,82,0.00,,,0.00,Wunderground v.1.15,2013-09-22 08:40:00,
2013-09-22 03:50:00,52.3,46.6,29.95,North,32767,-999.0,0.0,81,0.00,,,0.00,Wunderground v.1.15,2013-09-22 08:50:00,
2013-09-22 03:55:00,52.3,46.6,29.95,North,32767,-999.0,0.0,81,0.00,,,0.00,Wunderground v.1.15,2013-09-22 08:55:00,
2013-09-22 04:00:00,52.3,46.6,29.95,North,32767,-999.0,0.0,81,0.00,,,0.00,Wunderground v.1.15,2013-09-22 09:00:00,
2013-09-22 04:10:00,52.3,46.3,29.95,North,32767,-999.0,0.0,80,0.00,,,0.00,Wunderground v.1.15,2013-09-22 09:10:00,
2013-09-22 04:20:00,52.3,46.0,29.95,North,32767,-999.0,0.0,79,0.00,,,0.00,Wunderground v.1.15,2013-09-22 09:20:00,
2013-09-22 04:30:00,52.3,46.0,29.95,North,32767,-999.0,0.0,79,0.00,,,0.00,Wunderground v.1.15,2013-09-22 09:30:00,
2013-09-22 04:35:00,52.3,46.0,29.95,North,32767,-999.0,0.0,79,0.00,,,0.00,Wunderground v.1.15,2013-09-22 09:35:00,
2013-09-22 04:40:00,52.3,46.0,29.96,North,32767,-999.0,0.0,79,0.00,,,0.00,Wunderground v.1.15,2013-09-22 09:40:00,
2013-09-22 04:45:00,52.2,45.9,29.96,North,32767,-999.0,0.0,79,0.00,,,0.00,Wunderground v.1.15,2013-09-22 09:45:00,
2013-09-22 04:50:00,52.2,45.9,29.96,North,32767,-999.0,0.0,79,0.00,,,0.00,Wunderground v.1.15,2013-09-22 09:50:00,
2013-09-22 04:55:00,52.2,45.9,29.96,North,32767,-999.0,0.0,79,0.00,,,0.00,Wunderground v.1.15,2013-09-22 09:55:00,
2013-09-22 05:00:00,52.2,45.9,29.96,North,32767,-999.0,0.0,79,0.00,,,0.00,Wunderground v.1.15,2013-09-22 10:00:00,
2013-09-22 05:05:00,52.0,45.4,29.96,North,32767,-999.0,0.0,78,0.00,,,0.00,Wunderground v.1.15,2013-09-22 10:05:00,
2013-09-22 05:10:00,52.0,45.4,29.96,North,32767,-999.0,0.0,78,0.00,,,0.00,Wunderground v.1.15,2013-09-22 10:10:00,
2013-09-22 05:15:00,51.9,45.6,29.96,North,32767,-999.0,0.0,79,0.00,,,0.00,Wunderground v.1.15,2013-09-22 10:15:00,
2013-09-22 05:25:00,51.9,45.3,29.96,North,32767,-999.0,0.0,78,0.00,,,0.00,Wunderground v.1.15,2013-09-22 10:25:00,
2013-09-22 05:35:00,51.7,45.1,29.96,North,32767,-999.0,0.0,78,0.00,,,0.00,Wunderground v.1.15,2013-09-22 10:35:00,
2013-09-22 05:50:00,51.6,45.3,29.97,North,32767,-999.0,0.0,79,0.00,,,0.00,Wunderground v.1.15,2013-09-22 10:50:00,
2013-09-22 06:00:00,51.4,45.1,29.97,North,32767,-999.0,0.0,79,0.00,,,0.00,Wunderground v.1.15,2013-09-22 11:00:00,
2013-09-22 06:05:00,51.4,45.1,29.97,North,32767,-999.0,0.0,79,0.00,,,0.00,Wunderground v.1.15,2013-09-22 11:05:00,
2013-09-22 06:15:00,51.4,45.1,29.97,North,32767,-999.0,0.0,79,0.00,,,0.00,Wunderground v.1.15,2013-09-22 11:15:00,
2013-09-22 06:25:00,51.3,45.0,29.98,North,32767,-999.0,0.0,79,0.00,,,0.00,Wunderground v.1.15,2013-09-22 11:25:00,
2013-09-22 06:30:00,51.3,45.0,29.98,North,32767,-999.0,0.0,79,0.00,,,0.00,Wunderground v.1.15,2013-09-22 11:30:00,
2013-09-22 06:35:00,51.1,45.1,29.98,North,32767,-999.0,0.0,80,0.00,,,0.00,Wunderground v.1.15,2013-09-22 11:35:00,
2013-09-22 06:40:00,51.1,45.1,29.98,North,32767,-999.0,0.0,80,0.00,,,0.00,Wunderground v.1.15,2013-09-22 11:40:00,
2013-09-22 07:00:00,51.1,45.1,29.98,North,32767,-999.0,0.0,80,0.00,,,0.00,Wunderground v.1.15,2013-09-22 12:00:00,
2013-09-22 07:15:00,51.0,45.0,29.99,North,32767,-999.0,0.0,80,0.00,,,0.00,Wunderground v.1.15,2013-09-22 12:15:00,
2013-09-22 07:25:00,51.0,45.0,29.99,North,32767,-999.0,0.0,80,0.00,,,0.00,Wunderground v.1.15,2013-09-22 12:25:00,
2013-09-22 07:30:00,51.1,45.1,29.99,North,32767,-999.0,0.0,80,0.00,,,0.00,Wunderground v.1.15,2013-09-22 12:30:00,
2013-09-22 07:35:00,51.1,45.1,29.99,North,32767,-999.0,0.0,80,0.00,,,0.00,Wunderground v.1.15,2013-09-22 12:35:00,
2013-09-22 07:40:00,51.3,45.3,30.00,North,32767,-999.0,0.0,80,0.00,,,0.00,Wunderground v.1.15,2013-09-22 12:40:00,
2013-09-22 07:45:00,51.6,45.6,30.00,North,32767,-999.0,0.0,80,0.00,,,0.00,Wunderground v.1.15,2013-09-22 12:45:00,
2013-09-22 08:00:00,52.6,46.3,30.00,North,32767,-999.0,0.0,79,0.00,,,0.00,Wunderground v.1.15,2013-09-22 13:00:00,
2013-09-22 08:15:00,53.8,46.4,30.01,North,32767,-999.0,0.0,76,0.00,,,0.00,Wunderground v.1.15,2013-09-22 13:15:00,
2013-09-22 08:20:00,54.4,47.0,30.01,SE,127,0.0,0.0,76,0.00,,,0.00,Wunderground v.1.15,2013-09-22 13:20:00,
2013-09-22 08:25:00,55.0,46.1,30.01,ESE,121,0.0,0.0,72,0.00,,,0.00,Wunderground v.1.15,2013-09-22 13:25:00,
2013-09-22 08:35:00,55.9,46.3,30.01,ESE,121,0.0,0.0,70,0.00,,,0.00,Wunderground v.1.15,2013-09-22 13:35:00,
2013-09-22 08:40:00,56.3,46.3,30.02,SE,124,0.0,0.0,69,0.00,,,0.00,Wunderground v.1.15,2013-09-22 13:40:00,
2013-09-22 08:45:00,56.9,46.8,30.02,SE,124,0.0,0.0,69,0.00,,,0.00,Wunderground v.1.15,2013-09-22 13:45:00,
2013-09-22 08:55:00,57.5,47.4,30.02,North,32767,-999.0,0.0,69,0.00,,,0.00,Wunderground v.1.15,2013-09-22 13:55:00,
2013-09-22 09:00:00,57.7,46.8,30.02,ENE,76,0.0,0.0,67,0.00,,,0.00,Wunderground v.1.15,2013-09-22 14:00:00,
2013-09-22 09:05:00,58.0,47.1,30.02,ENE,76,0.0,0.0,67,0.00,,,0.00,Wunderground v.1.15,2013-09-22 14:05:00,
2013-09-22 09:10:00,58.0,46.7,30.02,ENE,76,0.0,0.0,66,0.00,,,0.00,Wunderground v.1.15,2013-09-22 14:10:00,
2013-09-22 09:20:00,58.7,47.0,30.02,North,32767,-999.0,0.0,65,0.00,,,0.00,Wunderground v.1.15,2013-09-22 14:20:00,
2013-09-22 09:25:00,58.9,46.7,30.03,North,32767,-999.0,0.0,64,0.00,,,0.00,Wunderground v.1.15,2013-09-22 14:25:00,
2013-09-22 09:35:00,59.2,47.0,30.03,ESE,103,2.0,2.0,64,0.00,,,0.00,Wunderground v.1.15,2013-09-22 14:35:00,
2013-09-22 09:45:00,59.3,47.1,30.03,East,90,1.0,1.0,64,0.00,,,0.00,Wunderground v.1.15,2013-09-22 14:45:00,
2013-09-22 09:55:00,59.5,47.7,30.03,ENE,65,0.0,0.0,65,0.00,,,0.00,Wunderground v.1.15,2013-09-22 14:55:00,
2013-09-22 10:05:00,59.8,48.4,30.03,SSW,195,0.0,0.0,66,0.00,,,0.00,Wunderground v.1.15,2013-09-22 15:05:00,
2013-09-22 10:10:00,59.9,48.5,30.03,SSW,192,0.0,0.0,66,0.00,,,0.00,Wunderground v.1.15,2013-09-22 15:10:00,
2013-09-22 10:20:00,60.3,48.5,30.03,East,82,0.0,0.0,65,0.00,,,0.00,Wunderground v.1.15,2013-09-22 15:20:00,
2013-09-22 10:25:00,60.4,48.2,30.04,SE,144,0.0,0.0,64,0.00,,,0.00,Wunderground v.1.15,2013-09-22 15:25:00,
2013-09-22 10:30:00,60.6,48.4,30.04,ENE,69,0.0,0.0,64,0.00,,,0.00,Wunderground v.1.15,2013-09-22 15:30:00,
2013-09-22 10:35:00,60.7,48.4,30.04,SSW,198,0.0,0.0,64,0.00,,,0.00,Wunderground v.1.15,2013-09-22 15:35:00,
2013-09-22 10:40:00,61.0,48.7,30.03,NE,47,0.0,0.0,64,0.00,,,0.00,Wunderground v.1.15,2013-09-22 15:40:00,
2013-09-22 10:50:00,61.4,49.5,30.03,SSE,165,0.0,0.0,65,0.00,,,0.00,Wunderground v.1.15,2013-09-22 15:50:00,
2013-09-22 11:00:00,61.7,49.0,30.03,ENE,71,0.0,0.0,63,0.00,,,0.00,Wunderground v.1.15,2013-09-22 16:00:00,
2013-09-22 11:10:00,62.0,49.3,30.03,SSE,157,0.0,0.0,63,0.00,,,0.00,Wunderground v.1.15,2013-09-22 16:10:00,
2013-09-22 11:20:00,62.3,49.1,30.03,SSW,195,0.0,0.0,62,0.00,,,0.00,Wunderground v.1.15,2013-09-22 16:20:00,
2013-09-22 11:30:00,62.8,50.0,30.02,SSE,164,0.0,0.0,63,0.00,,,0.00,Wunderground v.1.15,2013-09-22 16:30:00,
2013-09-22 11:35:00,62.9,50.1,30.02,East,92,0.0,0.0,63,0.00,,,0.00,Wunderground v.1.15,2013-09-22 16:35:00,
2013-09-22 11:40:00,63.1,49.4,30.02,SSE,162,0.0,0.0,61,0.00,,,0.00,Wunderground v.1.15,2013-09-22 16:40:00,
2013-09-22 11:45:00,63.3,49.2,30.02,South,174,0.0,0.0,60,0.00,,,0.00,Wunderground v.1.15,2013-09-22 16:45:00,
2013-09-22 12:05:00,63.7,49.5,30.01,SE,124,0.0,0.0,60,0.00,,,0.00,Wunderground v.1.15,2013-09-22 17:05:00,
2013-09-22 12:15:00,64.1,49.5,30.01,SSE,167,0.0,0.0,59,0.00,,,0.00,Wunderground v.1.15,2013-09-22 17:15:00,
2013-09-22 12:20:00,64.2,49.6,30.01,SSE,164,0.0,0.0,59,0.00,,,0.00,Wunderground v.1.15,2013-09-22 17:20:00,
2013-09-22 12:30:00,64.6,49.9,30.00,North,3,0.0,3.0,59,0.00,,,0.00,Wunderground v.1.15,2013-09-22 17:30:00,
2013-09-22 12:40:00,65.0,50.3,30.00,SE,141,1.0,1.0,59,0.00,,,0.00,Wunderground v.1.15,2013-09-22 17:40:00,
2013-09-22 12:55:00,65.7,49.6,29.99,East,100,0.0,0.0,56,0.00,,,0.00,Wunderground v.1.15,2013-09-22 17:55:00,
2013-09-22 13:05:00,66.0,49.8,29.99,ENE,76,0.0,0.0,56,0.00,,,0.00,Wunderground v.1.15,2013-09-22 18:05:00,
2013-09-22 13:10:00,66.2,50.0,29.98,ENE,76,0.0,0.0,56,0.00,,,0.00,Wunderground v.1.15,2013-09-22 18:10:00,
2013-09-22 13:15:00,66.2,50.0,29.98,ENE,75,0.0,0.0,56,0.00,,,0.00,Wunderground v.1.15,2013-09-22 18:15:00,
2013-09-22 13:25:00,66.5,49.8,29.97,NE,35,0.0,0.0,55,0.00,,,0.00,Wunderground v.1.15,2013-09-22 18:25:00,
2013-09-22 13:30:00,66.7,50.0,29.97,ENE,73,0.0,0.0,55,0.00,,,0.00,Wunderground v.1.15,2013-09-22 18:30:00,
2013-09-22 13:40:00,66.8,49.6,29.97,SSE,168,0.0,0.0,54,0.00,,,0.00,Wunderground v.1.15,2013-09-22 18:40:00,
2013-09-22 13:45:00,67.0,49.8,29.97,ESE,104,0.0,0.0,54,0.00,,,0.00,Wunderground v.1.15,2013-09-22 18:45:00,
2013-09-22 13:50:00,67.2,50.0,29.97,ESE,104,0.0,0.0,54,0.00,,,0.00,Wunderground v.1.15,2013-09-22 18:50:00,
2013-09-22 14:00:00,67.5,49.8,29.97,East,83,0.0,0.0,53,0.00,,,0.00,Wunderground v.1.15,2013-09-22 19:00:00,
2013-09-22 14:15:00,68.0,49.7,29.98,ESE,109,0.0,0.0,52,0.00,,,0.00,Wunderground v.1.15,2013-09-22 19:15:00,
2013-09-22 14:25:00,68.2,49.4,29.97,ESE,109,0.0,0.0,51,0.00,,,0.00,Wunderground v.1.15,2013-09-22 19:25:00,
2013-09-22 14:35:00,68.5,49.1,29.97,ENE,78,0.0,0.0,50,0.00,,,0.00,Wunderground v.1.15,2013-09-22 19:35:00,
2013-09-22 14:40:00,68.7,48.2,29.96,East,80,0.0,0.0,48,0.00,,,0.00,Wunderground v.1.15,2013-09-22 19:40:00,
2013-09-22 14:45:00,68.8,49.4,29.96,SE,140,0.0,0.0,50,0.00,,,0.00,Wunderground v.1.15,2013-09-22 19:45:00,
2013-09-22 14:50:00,69.0,48.5,29.96,SSW,206,0.0,0.0,48,0.00,,,0.00,Wunderground v.1.15,2013-09-22 19:50:00,
2013-09-22 15:00:00,69.3,49.3,29.96,East,79,0.0,0.0,49,0.00,,,0.00,Wunderground v.1.15,2013-09-22 20:00:00,
2013-09-22 15:10:00,69.5,48.4,29.95,ESE,109,0.0,0.0,47,0.00,,,0.00,Wunderground v.1.15,2013-09-22 20:10:00,
2013-09-22 15:20:00,69.7,49.1,29.95,SE,141,1.0,6.0,48,0.00,,,0.00,Wunderground v.1.15,2013-09-22 20:20:00,
2013-09-22 15:50:00,70.2,48.4,29.94,SSE,155,0.0,0.0,46,0.00,,,0.00,Wunderground v.1.15,2013-09-22 20:50:00,
2013-09-22 16:05:00,70.3,47.9,29.94,SE,141,0.0,0.0,45,0.00,,,0.00,Wunderground v.1.15,2013-09-22 21:05:00,
2013-09-22 16:20:00,70.3,46.1,29.93,ENE,75,0.0,0.0,42,0.00,,,0.00,Wunderground v.1.15,2013-09-22 21:20:00,
2013-09-22 16:30:00,70.5,47.5,29.93,ESE,113,0.0,0.0,44,0.00,,,0.00,Wunderground v.1.15,2013-09-22 21:30:00,
2013-09-22 16:35:00,70.5,46.9,29.93,ESE,107,0.0,0.0,43,0.00,,,0.00,Wunderground v.1.15,2013-09-22 21:35:00,
2013-09-22 16:40:00,70.5,46.3,29.92,ESE,116,0.0,0.0,42,0.00,,,0.00,Wunderground v.1.15,2013-09-22 21:40:00,
2013-09-22 16:50:00,70.5,46.3,29.92,SSE,155,0.0,0.0,42,0.00,,,0.00,Wunderground v.1.15,2013-09-22 21:50:00,
2013-09-22 17:10:00,70.5,46.3,29.93,SE,140,0.0,0.0,42,0.00,,,0.00,Wunderground v.1.15,2013-09-22 22:10:00,
2013-09-22 17:15:00,70.5,46.3,29.93,NE,55,0.0,0.0,42,0.00,,,0.00,Wunderground v.1.15,2013-09-22 22:15:00,
2013-09-22 17:25:00,70.3,44.8,29.92,ESE,123,0.0,0.0,40,0.00,,,0.00,Wunderground v.1.15,2013-09-22 22:25:00,
2013-09-22 17:30:00,70.3,44.8,29.92,ESE,112,0.0,0.0,40,0.00,,,0.00,Wunderground v.1.15,2013-09-22 22:30:00,
2013-09-22 17:35:00,70.2,45.4,29.92,ESE,117,0.0,0.0,41,0.00,,,0.00,Wunderground v.1.15,2013-09-22 22:35:00,
2013-09-22 17:40:00,70.2,46.0,29.93,ESE,112,0.0,0.0,42,0.00,,,0.00,Wunderground v.1.15,2013-09-22 22:40:00,
2013-09-22 17:50:00,70.0,44.6,29.93,ENE,62,0.0,0.0,40,0.00,,,0.00,Wunderground v.1.15,2013-09-22 22:50:00,
2013-09-22 18:00:00,70.0,45.2,29.93,ENE,71,0.0,0.0,41,0.00,,,0.00,Wunderground v.1.15,2013-09-22 23:00:00,
2013-09-22 18:10:00,69.8,45.0,29.93,ENE,71,0.0,0.0,41,0.00,,,0.00,Wunderground v.1.15,2013-09-22 23:10:00,
2013-09-22 18:15:00,69.8,45.0,29.93,North,32767,-999.0,0.0,41,0.00,,,0.00,Wunderground v.1.15,2013-09-22 23:15:00,
2013-09-22 18:25:00,-999.9,-99.9,29.94,North,32767,-999.0,0.0,255,-99.99,,,0.00,Wunderground v.1.15,2013-09-22 23:25:00,
2013-09-22 18:35:00,68.8,-99.9,29.94,North,32767,-999.0,0.0,255,0.00,,,0.00,Wunderground v.1.15,2013-09-22 23:35:00,
2013-09-22 18:45:00,68.5,-99.9,29.93,North,32767,-999.0,0.0,255,0.00,,,0.00,Wunderground v.1.15,2013-09-22 23:45:00,
2013-09-22 18:50:00,68.5,-99.9,29.93,North,32767,-999.0,0.0,255,0.00,,,0.00,Wunderground v.1.15,2013-09-22 23:50:00,
2013-09-22 18:55:00,67.5,-99.9,29.93,North,32767,-999.0,0.0,255,0.00,,,0.00,Wunderground v.1.15,2013-09-22 23:55:00,
2013-09-22 19:05:00,67.3,-99.9,29.93,North,32767,-999.0,0.0,255,0.00,,,0.00,Wunderground v.1.15,2013-09-23 00:05:00,
2013-09-22 19:15:00,-999.9,-99.9,29.93,North,32767,-999.0,0.0,255,-99.99,,,0.00,Wunderground v.1.15,2013-09-23 00:15:00,
2013-09-22 19:25:00,65.5,-99.9,29.95,North,32767,-999.0,0.0,255,0.00,,,0.00,Wunderground v.1.15,2013-09-23 00:25:00,
2013-09-22 19:30:00,65.4,-99.9,29.95,North,32767,-999.0,0.0,255,0.00,,,0.00,Wunderground v.1.15,2013-09-23 00:30:00,
2013-09-22 19:40:00,64.9,-99.9,29.94,ENE,73,0.0,0.0,255,0.00,,,0.00,Wunderground v.1.15,2013-09-23 00:40:00,
2013-09-22 19:45:00,64.9,-99.9,29.94,ENE,73,0.0,0.0,255,0.00,,,0.00,Wunderground v.1.15,2013-09-23 00:45:00,
2013-09-22 19:55:00,64.9,-99.9,29.94,ENE,73,0.0,0.0,255,0.00,,,0.00,Wunderground v.1.15,2013-09-23 00:55:00,
2013-09-22 20:10:00,-999.9,-99.9,29.95,ENE,73,0.0,0.0,255,-99.99,,,0.00,Wunderground v.1.15,2013-09-23 01:10:00,
2013-09-22 20:20:00,61.4,47.8,29.95,ENE,73,0.0,0.0,61,0.00,,,0.00,Wunderground v.1.15,2013-09-23 01:20:00,
2013-09-22 20:30:00,60.9,47.8,29.95,ENE,73,0.0,0.0,62,0.00,,,0.00,Wunderground v.1.15,2013-09-23 01:30:00,
2013-09-22 20:35:00,60.7,47.6,29.95,ENE,76,0.0,0.0,62,0.00,,,0.00,Wunderground v.1.15,2013-09-23 01:35:00,
2013-09-22 20:40:00,60.4,47.3,29.95,ENE,76,0.0,0.0,62,0.00,,,0.00,Wunderground v.1.15,2013-09-23 01:40:00,
2013-09-22 21:00:00,59.9,-99.9,29.96,ENE,76,0.0,0.0,255,0.00,,,0.00,Wunderground v.1.15,2013-09-23 02:00:00,
2013-09-22 21:05:00,59.8,-99.9,29.96,ENE,76,0.0,0.0,255,0.00,,,0.00,Wunderground v.1.15,2013-09-23 02:05:00,
2013-09-22 21:20:00,59.6,-99.9,29.96,ENE,76,0.0,0.0,255,-99.99,,,0.00,Wunderground v.1.15,2013-09-23 02:20:00,
2013-09-22 21:25:00,59.5,47.3,29.96,ENE,76,0.0,0.0,64,0.00,,,0.00,Wunderground v.1.15,2013-09-23 02:25:00,
2013-09-22 21:45:00,-999.9,-99.9,29.96,ENE,65,0.0,0.0,255,-99.99,,,0.00,Wunderground v.1.15,2013-09-23 02:45:00,
2013-09-22 21:50:00,-999.9,-99.9,29.96,ENE,75,0.0,0.0,255,-99.99,,,0.00,Wunderground v.1.15,2013-09-23 02:50:00,
2013-09-22 21:55:00,-999.9,-99.9,29.96,ENE,71,0.0,0.0,255,-99.99,,,0.00,Wunderground v.1.15,2013-09-23 02:55:00,
2013-09-22 22:00:00,59.0,-99.9,29.96,East,85,0.0,0.0,255,0.00,,,0.00,Wunderground v.1.15,2013-09-23 03:00:00,
2013-09-22 22:05:00,59.0,-99.9,29.96,ENE,71,0.0,0.0,255,0.00,,,0.00,Wunderground v.1.15,2013-09-23 03:05:00,
2013-09-22 22:15:00,58.9,46.7,29.96,East,82,0.0,0.0,64,0.00,,,0.00,Wunderground v.1.15,2013-09-23 03:15:00,
2013-09-22 22:20:00,58.9,46.7,29.96,ENE,78,0.0,0.0,64,0.00,,,0.00,Wunderground v.1.15,2013-09-23 03:20:00,
2013-09-22 22:30:00,58.7,46.5,29.97,ENE,75,0.0,0.0,64,0.00,,,0.00,Wunderground v.1.15,2013-09-23 03:30:00,
2013-09-22 22:40:00,58.6,46.5,29.96,ENE,76,0.0,0.0,64,0.00,,,0.00,Wunderground v.1.15,2013-09-23 03:40:00,
2013-09-22 22:55:00,58.3,46.6,29.97,ENE,72,0.0,0.0,65,0.00,,,0.00,Wunderground v.1.15,2013-09-23 03:55:00,
2013-09-22 23:15:00,58.0,46.3,29.97,East,83,0.0,0.0,65,0.00,,,0.00,Wunderground v.1.15,2013-09-23 04:15:00,
2013-09-22 23:20:00,58.0,46.3,29.97,NE,54,0.0,0.0,65,0.00,,,0.00,Wunderground v.1.15,2013-09-23 04:20:00,
2013-09-22 23:30:00,57.8,46.5,29.97,East,82,0.0,0.0,66,0.00,,,0.00,Wunderground v.1.15,2013-09-23 04:30:00,
2013-09-22 23:35:00,57.8,46.5,29.97,East,82,0.0,0.0,66,0.00,,,0.00,Wunderground v.1.15,2013-09-23 04:35:00,
2013-09-22 23:45:00,57.7,46.8,29.97,ENE,73,0.0,0.0,67,0.00,,,0.00,Wunderground v.1.15,2013-09-23 04:45:00,
2013-09-22 23:50:00,57.7,47.2,29.97,ENE,75,0.0,0.0,68,0.00,,,0.00,Wunderground v.1.15,2013-09-23 04:50:00,
2013-09-22 23:55:00,57.5,47.0,29.97,ENE,72,0.0,3.0,68,0.00,,,0.00,Wunderground v.1.15,2013-09-23 04:55:00,